(251324) = 2005 XW61 = 2007 CZ16

Discovered at Kitt Peak on 2007-02-08 by Spacewatch.

Orbit

Orbit type: Main Belt

Note: WebGL enabled browser required.

epoch2024-03-31.0
epoch JD2460400.5
perihelion date2021-11-10.49107
perihelion JD2459528.99108
argument of perihelion (°)173.70284
ascending node (°)202.57630
inclination (°)3.70514
eccentricity0.1301359
perihelion distance (AU)2.6990477
Tisserand w.r.t. Jupiter3.2
ΔV w.r.t. Earth (km/sec)10.3
semimajor axis (AU)3.1028385
mean anomaly (°)157.15824
mean daily motion (°/day)0.18032890
aphelion distance (AU)3.507
period (years)5.47
P-vector [x]0.95981936
P-vector [y]0.25456092
P-vector [z]0.11809120
Q-vector [x]-0.27951976
Q-vector [y]0.90448772
Q-vector [z]0.32213455
absolute magnitude16.2
phase slope0.15
uncertainty0
referenceE2024-GI3
observations used378
oppositions14
arc length (days)6744
first opposition used2005
last opposition used2024
residual rms (arc-secs)0.67
perturbers coarse indicatorM-v
perturbers precise indicator003Ek
first observation date used2005-10-25.0
last observation date used2024-04-12.0
computer nameMPCLINUX
JD of orbit computation2456819.522814
perihelion JD uncertainty (days)1.5537E-04
argument of perihelion uncertainty (°)5.6986E-05
ascending node uncertainty (°)5.3438E-05
inclination uncertainty (°)5.6323E-06
eccentricity uncertainty 8.8103E-08
perihelion distance uncertainty (AU)3.1882E-07
Minimum Orbit Intersection Distances (in AU)
for orbit epoch: 2460400.5, reference: E2024-GI3
Mercury2.35294
Venus1.97533
Earth1.70052
Mars1.27273
Jupiter1.9491
Saturn5.92901
Uranus14.9801
Neptune27.0456

Observations

360 total observations over interval: 2005 10 25.32153 – 2024 03 07.398301
These data are available for download (format description).

Date (UT) J2000 RA J2000 Dec Magn Location Ref
2005 10 25.32153 03 14 14.15 +15 54 00.6 20.3 V 691 – Steward Observatory, Kitt Peak-Spacewatch MPS 208133
2005 10 25.33883 03 14 13.37 +15 53 56.0 20.2 V 691 – Steward Observatory, Kitt Peak-Spacewatch MPS 208133
2005 10 25.35612 03 14 12.61 +15 53 51.9 20.4 V 691 – Steward Observatory, Kitt Peak-Spacewatch MPS 208133
2005 11 06.16551 03 05 08.36 +14 59 04.1 19.9 V 691 – Steward Observatory, Kitt Peak-Spacewatch MPS 208133
2005 11 06.18300 03 05 07.50 +14 58 59.2 20.0 V 691 – Steward Observatory, Kitt Peak-Spacewatch MPS 208133
2005 11 06.20035 03 05 06.63 +14 58 54.3 19.9 V 691 – Steward Observatory, Kitt Peak-Spacewatch MPS 208133
2005 11 06.32607 03 05 00.31 +14 58 18.2 19.6 V G96 – Mt. Lemmon Survey MPS 208133
2005 11 06.33596 03 04 59.80 +14 58 15.4 19.5 V G96 – Mt. Lemmon Survey MPS 208133
2005 11 06.34586 03 04 59.30 +14 58 12.4 19.7 V G96 – Mt. Lemmon Survey MPS 208133
2005 11 06.35581 03 04 58.80 +14 58 09.5 19.5 V G96 – Mt. Lemmon Survey MPS 208133
2005 12 05.07108 02 44 37.08 +13 01 17.0 20.5 V 691 – Steward Observatory, Kitt Peak-Spacewatch MPS 155512
2005 12 05.08707 02 44 36.57 +13 01 14.2 20.4 V 691 – Steward Observatory, Kitt Peak-Spacewatch MPS 155512
2005 12 05.10308 02 44 36.08 +13 01 11.6 20.6 V 691 – Steward Observatory, Kitt Peak-Spacewatch MPS 155512
2005 12 07.07068 02 43 40.79 +12 55 58.8 20.4 V 691 – Steward Observatory, Kitt Peak-Spacewatch MPS 155512
2005 12 07.09820 02 43 40.07 +12 55 54.4 20.7 V 691 – Steward Observatory, Kitt Peak-Spacewatch MPS 155512
2005 12 07.12218 02 43 39.35 +12 55 51.0 20.4 V 691 – Steward Observatory, Kitt Peak-Spacewatch MPS 155512
2007 01 12.41817 09 30 27.91 +09 41 12.2 21.5 R H07 – 7300 Observatory, Cloudcroft MPS 208133
2007 01 12.42375 09 30 27.71 +09 41 12.3 21.8 R H07 – 7300 Observatory, Cloudcroft MPS 208133
2007 01 12.42934 09 30 27.52 +09 41 13.4 21.5 R H07 – 7300 Observatory, Cloudcroft MPS 208133
2007 02 08.24530 09 10 42.22 +11 12 57.8   291 – LPL/Spacewatch II MPS 199555
2007 02 08.25424 09 10 41.81 +11 13 00.2   291 – LPL/Spacewatch II MPS 199555
2007 02 08.26305 09 10 41.36 +11 13 02.4   291 – LPL/Spacewatch II MPS 199555
2007 02 09.23976 09 09 54.74 +11 17 04.0   291 – LPL/Spacewatch II MPS 199555
2007 02 09.24694 09 09 54.40 +11 17 05.5   291 – LPL/Spacewatch II MPS 199555
2007 02 09.25406 09 09 54.04 +11 17 07.7   291 – LPL/Spacewatch II MPS 199555
2007 02 10.32721 09 09 02.91 +11 21 33.7 20.7 V G96 – Mt. Lemmon Survey MPS 199555
2007 02 10.33507 09 09 02.55 +11 21 35.5 20.5 V G96 – Mt. Lemmon Survey MPS 199555
2007 02 10.34288 09 09 02.19 +11 21 37.4 20.6 V G96 – Mt. Lemmon Survey MPS 199555
2007 02 10.35067 09 09 01.80 +11 21 38.5 20.3 V G96 – Mt. Lemmon Survey MPS 199555
2007 03 16.22782 08 49 09.40 +13 25 08.8 21.6 V G96 – Mt. Lemmon Survey MPS 209012
2007 03 16.23456 08 49 09.26 +13 25 10.1 21.1 V G96 – Mt. Lemmon Survey MPS 209012
2007 03 16.24133 08 49 09.15 +13 25 10.8 21.5 V G96 – Mt. Lemmon Survey MPS 209012
2007 03 16.24808 08 49 09.01 +13 25 11.9 21.3 V G96 – Mt. Lemmon Survey MPS 209012
2008 04 03.35446 13 16 38.92 -08 30 00.2 21.2 V G96 – Mt. Lemmon Survey MPS 244788
2008 04 03.36042 13 16 38.67 -08 29 57.9 21.1 V G96 – Mt. Lemmon Survey MPS 244788
2008 04 03.36634 13 16 38.42 -08 29 57.0 20.9 V G96 – Mt. Lemmon Survey MPS 244788
2008 04 03.37231 13 16 38.17 -08 29 54.4 21.5 V G96 – Mt. Lemmon Survey MPS 244788
2010 06 16.921100 23 39 58.04 +01 04 43.3   C51 – WISE MPS 334982
2010 06 17.053403 23 40 04.85 +01 05 30.4   C51 – WISE MPS 334982
2010 06 17.185707 23 40 11.59 +01 06 16.3   C51 – WISE MPS 334982
2010 06 17.318010 23 40 18.45 +01 07 03.1   C51 – WISE MPS 334982
2010 06 17.450315 23 40 25.140 +01 07 46.81   C51 – WISE MPS 903785
2010 06 17.516400 23 40 28.44 +01 08 12.2   C51 – WISE MPS 334982
2010 06 17.582617 23 40 31.83 +01 08 34.8   C51 – WISE MPS 334982
2010 06 17.648705 23 40 35.18 +01 08 58.5   C51 – WISE MPS 334982
2010 06 17.714920 23 40 38.56 +01 09 21.2   C51 – WISE MPS 334982
2010 06 17.781008 23 40 41.81 +01 09 44.6   C51 – WISE MPS 334982
2010 06 17.91331 23 40 48.57 +01 10 30.4   C51 – WISE MPS 334982
2010 06 18.045616 23 40 55.24 +01 11 16.2   C51 – WISE MPS 334982
2010 06 18.17792 23 41 02.01 +01 12 01.6   C51 – WISE MPS 334982
2010 06 18.310225 23 41 08.57 +01 12 47.0   C51 – WISE MPS 334982
2010 09 08.24112 23 48 45.72 +01 55 03.2 20.4 R I41 – Palomar Mountain--ZTF MPS 1530654
2010 09 08.26481 23 48 44.73 +01 54 55.9 19.9   704 – Lincoln Laboratory ETS, New Mexico MPS 347149
2010 09 08.27667 23 48 44.18 +01 54 52.4 19.4   704 – Lincoln Laboratory ETS, New Mexico MPS 347149
2010 09 08.28860 23 48 43.67 +01 54 48.8 19.9   704 – Lincoln Laboratory ETS, New Mexico MPS 347149
2010 09 08.30073 23 48 43.28 +01 54 43.8 19.8   704 – Lincoln Laboratory ETS, New Mexico MPS 347149
2010 09 08.31371 23 48 42.72 +01 54 39.0 20.9 R I41 – Palomar Mountain--ZTF MPS 1530654
2010 09 11.26696 23 46 42.68 +01 38 23.6 20.5 R I41 – Palomar Mountain--ZTF MPS 1530654
2010 09 11.31104 23 46 40.82 +01 38 08.2 20.4 R I41 – Palomar Mountain--ZTF MPS 1530654
2010 09 13.96646 23 44 49.78 +01 22 55.1 19.7 V J75 – OAM Observatory, La Sagra MPS 348046
2010 09 13.97832 23 44 49.25 +01 22 51.5 19.1 V J75 – OAM Observatory, La Sagra MPS 348046
2010 09 13.99023 23 44 48.80 +01 22 47.5 19.5 V J75 – OAM Observatory, La Sagra MPS 348046
2010 09 20.24871 23 40 22.22 +00 45 29.6 20.4 R I41 – Palomar Mountain--ZTF MPS 1530654
2010 09 20.33458 23 40 18.45 +00 44 57.7 20.3 R I41 – Palomar Mountain--ZTF MPS 1530654
2010 09 26.37117 23 36 04.70 +00 08 17.7 20.0 R I41 – Palomar Mountain--ZTF MPS 1530654
2010 09 26.41398 23 36 02.90 +00 08 01.4 19.9 R I41 – Palomar Mountain--ZTF MPS 1530654
2010 09 29.403080 23 34 02.422 -00 09 55.11 19.71 i F51 – Pan-STARRS 1, Haleakala MPS 366804
2010 09 29.406011 23 34 02.297 -00 09 55.19 19.77 i F51 – Pan-STARRS 1, Haleakala MPS 366804
2010 09 29.409045 23 34 02.164 -00 09 56.59 19.71 i F51 – Pan-STARRS 1, Haleakala MPS 366804
2010 10 07.462680 23 29 06.261 -00 56 01.53 19.92 r F51 – Pan-STARRS 1, Haleakala MPS 366804
2010 10 07.464216 23 29 06.161 -00 56 01.30 20.11 r F51 – Pan-STARRS 1, Haleakala MPS 366804
2010 10 07.465670 23 29 06.166 -00 56 02.41 20.00 r F51 – Pan-STARRS 1, Haleakala MPS 366804
2010 10 07.468565 23 29 06.073 -00 56 03.77 19.87 r F51 – Pan-STARRS 1, Haleakala MPS 366804
2010 10 07.471570 23 29 05.963 -00 56 04.35 19.90 r F51 – Pan-STARRS 1, Haleakala MPS 366804
2010 10 09.17318 23 28 10.92 -01 05 10.7 19.7 V G96 – Mt. Lemmon Survey MPS 353648
2010 10 09.17376 23 28 10.88 -01 05 10.7 19.6 V G96 – Mt. Lemmon Survey MPS 353648
2010 10 09.18014 23 28 10.70 -01 05 12.6 19.4 V G96 – Mt. Lemmon Survey MPS 353648
2010 10 09.18072 23 28 10.70 -01 05 12.5 19.6 V G96 – Mt. Lemmon Survey MPS 353648
2010 10 09.18708 23 28 10.45 -01 05 14.8 19.9 V G96 – Mt. Lemmon Survey MPS 353648
2010 10 09.18764 23 28 10.41 -01 05 14.7 19.9 V G96 – Mt. Lemmon Survey MPS 353648
2010 10 09.19390 23 28 10.23 -01 05 17.0 19.9 V G96 – Mt. Lemmon Survey MPS 353648
2010 10 09.19448 23 28 10.20 -01 05 16.9 19.8 V G96 – Mt. Lemmon Survey MPS 353648
2010 10 09.251121 23 28 08.514 -01 05 33.51 19.94 z F51 – Pan-STARRS 1, Haleakala MPS 366804
2010 10 09.257061 23 28 08.319 -01 05 35.76 20.00 z F51 – Pan-STARRS 1, Haleakala MPS 366804
2010 10 09.263041 23 28 08.128 -01 05 37.57 19.94 z F51 – Pan-STARRS 1, Haleakala MPS 366804
2010 10 09.265996 23 28 08.023 -01 05 38.50 20.05 z F51 – Pan-STARRS 1, Haleakala MPS 366804
2010 10 09.268930 23 28 07.919 -01 05 39.32 19.93 z F51 – Pan-STARRS 1, Haleakala MPS 366804
2010 10 09.271857 23 28 07.826 -01 05 40.19 19.95 z F51 – Pan-STARRS 1, Haleakala MPS 366804
2010 10 10.264751 23 27 36.997 -01 10 49.63 20.43 g F51 – Pan-STARRS 1, Haleakala MPS 366804
2010 10 10.266199 23 27 36.962 -01 10 49.99 20.36 g F51 – Pan-STARRS 1, Haleakala MPS 366804
2010 10 10.270635 23 27 36.812 -01 10 51.55 20.44 g F51 – Pan-STARRS 1, Haleakala MPS 366804
2010 10 10.273537 23 27 36.728 -01 10 52.47 20.53 g F51 – Pan-STARRS 1, Haleakala MPS 366804
2010 10 10.276055 23 27 36.638 -01 10 53.07 20.07 r F51 – Pan-STARRS 1, Haleakala MPS 366804
2010 10 10.277499 23 27 36.590 -01 10 53.44 20.05 r F51 – Pan-STARRS 1, Haleakala MPS 366804
